�������l�o���
Date,Time,MP-1(��Sv/h),MP-2(��Sv/h),MP-3(��Sv/h),MP-4(��Sv/h),MP-5(��Sv/h),MP-6(��Sv/h),MP-7(��Sv/h),MP-8(��Sv/h),����,����(m/s),���J
2020/10/30,00:00,0.665,0.956,0.605,1.176,0.847,0.387,0.669,0.633,���k��,11.8,��
2020/10/30,00:10,0.667,0.958,0.605,1.173,0.847,0.386,0.667,0.634,���k��,11.6,��
2020/10/30,00:20,0.665,0.958,0.604,1.174,0.847,0.386,0.668,0.634,��,10.0,��
2020/10/30,00:30,0.667,0.961,0.605,1.177,0.848,0.387,0.670,0.633,��,11.3,��
2020/10/30,00:40,0.665,0.960,0.605,1.175,0.848,0.385,0.669,0.636,��,11.3,��
2020/10/30,00:50,0.667,0.962,0.605,1.176,0.848,0.387,0.668,0.634,��,11.4,��
2020/10/30,01:00,0.667,0.956,0.605,1.175,0.847,0.386,0.667,0.633,��,10.7,��
2020/10/30,01:10,0.664,0.959,0.606,1.176,0.847,0.387,0.670,0.632,��,10.5,��
2020/10/30,01:20,0.666,0.961,0.607,1.174,0.848,0.387,0.669,0.634,��,10.9,��
2020/10/30,01:30,0.664,0.959,0.605,1.176,0.846,0.385,0.668,0.632,��,13.0,��
2020/10/30,01:40,0.666,0.961,0.606,1.176,0.847,0.386,0.670,0.634,���k��,10.8,��
2020/10/30,01:50,0.666,0.958,0.606,1.175,0.847,0.386,0.670,0.633,���k��,11.1,��
2020/10/30,02:00,0.666,0.960,0.605,1.175,0.848,0.387,0.670,0.633,��,11.6,��
2020/10/30,02:10,0.666,0.960,0.605,1.176,0.849,0.387,0.670,0.633,��,10.3,��
2020/10/30,02:20,0.665,0.958,0.605,1.178,0.849,0.385,0.671,0.632,��,10.2,��
2020/10/30,02:30,0.665,0.959,0.605,1.173,0.849,0.387,0.669,0.634,��,9.6,��
2020/10/30,02:40,0.665,0.960,0.604,1.175,0.847,0.387,0.669,0.631,��,8.6,��
2020/10/30,02:50,0.665,0.958,0.605,1.176,0.848,0.386,0.670,0.632,��,7.9,��
2020/10/30,03:00,0.664,0.957,0.605,1.178,0.847,0.386,0.672,0.634,���k��,7.1,��
2020/10/30,03:10,0.665,0.958,0.605,1.176,0.846,0.385,0.670,0.633,�k��,5.0,��
2020/10/30,03:20,0.665,0.959,0.605,1.178,0.846,0.386,0.669,0.635,�k�k��,5.3,��
2020/10/30,03:30,0.664,0.959,0.603,1.176,0.846,0.385,0.669,0.633,�k�k��,5.0,��
2020/10/30,03:40,0.664,0.958,0.603,1.176,0.849,0.385,0.670,0.634,�k��,3.2,��
2020/10/30,03:50,0.665,0.958,0.604,1.175,0.847,0.385,0.671,0.634,�k�k��,3.4,��
2020/10/30,04:00,0.664,0.959,0.604,1.177,0.846,0.385,0.671,0.633,�k�k��,4.1,��
2020/10/30,04:10,0.665,0.958,0.606,1.176,0.846,0.386,0.673,0.632,�k�k��,4.3,��
2020/10/30,04:20,0.666,0.958,0.605,1.174,0.846,0.384,0.670,0.633,�k�k��,3.8,��
2020/10/30,04:30,0.664,0.958,0.605,1.174,0.846,0.386,0.671,0.634,�k��,2.9,��
2020/10/30,04:40,0.665,0.958,0.604,1.176,0.847,0.385,0.671,0.633,���k��,2.9,��
2020/10/30,04:50,0.663,0.958,0.603,1.177,0.847,0.384,0.672,0.631,���k��,3.1,��
2020/10/30,05:00,0.664,0.957,0.604,1.175,0.845,0.386,0.671,0.633,���k��,4.9,��
2020/10/30,05:10,0.667,0.955,0.607,1.175,0.846,0.385,0.670,0.633,���k��,6.6,��
2020/10/30,05:20,0.663,0.959,0.605,1.175,0.846,0.385,0.671,0.632,���k��,6.0,��
2020/10/30,05:30,0.663,0.962,0.606,1.177,0.847,0.384,0.673,0.632,���k��,6.8,��
2020/10/30,05:40,0.664,0.959,0.605,1.174,0.845,0.383,0.671,0.633,�k,4.1,��
2020/10/30,05:50,0.664,0.959,0.605,1.175,0.846,0.384,0.671,0.632,�k,3.4,��
2020/10/30,06:00,0.664,0.959,0.604,1.173,0.847,0.384,0.671,0.632,�k�k��,4.6,��
2020/10/30,06:10,0.664,0.957,0.604,1.173,0.847,0.384,0.670,0.634,�k�k��,3.6,��
2020/10/30,06:20,0.662,0.957,0.606,1.178,0.848,0.383,0.670,0.632,���k��,1.1,��
2020/10/30,06:30,0.664,0.958,0.605,1.176,0.846,0.385,0.670,0.632,���k��,5.7,��
2020/10/30,06:40,0.665,0.959,0.605,1.176,0.846,0.384,0.669,0.633,�k��,4.2,��
2020/10/30,06:50,0.664,0.956,0.606,1.176,0.847,0.383,0.670,0.633,�k��,4.3,��
2020/10/30,07:00,0.663,0.958,0.605,1.174,0.847,0.384,0.671,0.633,�k��,4.1,��
2020/10/30,07:10,0.664,0.961,0.605,1.174,0.846,0.383,0.671,0.633,�k��,5.2,��
2020/10/30,07:20,0.665,0.957,0.605,1.176,0.846,0.383,0.671,0.633,�k��,6.7,��
2020/10/30,07:30,0.664,0.960,0.603,1.175,0.848,0.385,0.670,0.633,�k��,5.2,��
2020/10/30,07:40,0.664,0.958,0.605,1.176,0.847,0.384,0.671,0.634,�k��,3.3,��
2020/10/30,07:50,0.664,0.958,0.606,1.175,0.846,0.384,0.673,0.632,�k��,2.3,��
2020/10/30,08:00,0.665,0.958,0.605,1.175,0.845,0.384,0.672,0.634,�k��,2.9,��
2020/10/30,08:10,0.664,0.955,0.606,1.174,0.846,0.384,0.671,0.632,�k��,3.9,��
2020/10/30,08:20,0.665,0.960,0.604,1.175,0.846,0.384,0.671,0.634,�k�k��,1.7,��
2020/10/30,08:30,0.664,0.954,0.605,1.175,0.847,0.384,0.672,0.633,�k�k��,2.0,��
2020/10/30,08:40,0.663,0.955,0.604,1.175,0.846,0.385,0.670,0.634,�k��,6.1,��
2020/10/30,08:50,0.667,0.957,0.602,1.176,0.846,0.386,0.671,0.633,�k��,7.4,��
2020/10/30,09:00,0.667,0.955,0.606,1.176,0.848,0.385,0.672,0.632,�k��,7.9,��
2020/10/30,09:10,0.667,0.955,0.606,1.174,0.847,0.386,0.670,0.634,�k��,7.2,��
2020/10/30,09:20,0.666,0.955,0.603,1.178,0.848,0.386,0.670,0.633,���k��,6.0,��
2020/10/30,09:30,0.664,0.951,0.605,1.177,0.847,0.386,0.669,0.635,�k��,8.6,��
2020/10/30,09:40,0.666,0.955,0.606,1.177,0.849,0.386,0.671,0.635,���k��,7.9,��
2020/10/30,09:50,0.664,0.954,0.606,1.177,0.847,0.386,0.669,0.634,���k��,8.8,��
2020/10/30,10:00,0.664,0.952,0.606,1.177,0.846,0.385,0.672,0.634,���k��,5.1,��
2020/10/30,10:10,0.664,0.953,0.606,1.178,0.847,0.385,0.672,0.634,��,4.3,��
2020/10/30,10:20,0.666,0.955,0.605,1.177,0.846,0.388,0.670,0.634,���k��,5.7,��
2020/10/30,10:30,0.666,0.956,0.607,1.178,0.848,0.386,0.671,0.634,�k��,5.9,��
2020/10/30,10:40,0.666,0.956,0.605,1.180,0.849,-,0.672,0.634,�k��,5.1,��
2020/10/30,10:50,0.666,0.957,0.605,1.176,0.849,-,0.672,0.635,�k��,4.9,��
2020/10/30,11:00,0.667,0.956,0.606,1.178,0.847,-,0.671,0.634,���k��,7.5,��
2020/10/30,11:10,0.664,0.959,0.606,1.180,0.849,-,0.673,0.635,���k��,9.0,��
2020/10/30,11:20,0.665,0.955,0.604,1.178,0.845,-,0.671,0.634,���k��,6.0,��
2020/10/30,11:30,0.665,0.957,0.604,1.178,0.847,-,0.671,0.633,�k��,4.4,��
2020/10/30,11:40,0.668,0.958,0.606,1.179,0.848,-,0.671,0.634,�k�k��,6.9,��
2020/10/30,11:50,0.665,0.957,0.606,1.181,0.849,-,0.670,0.635,�k�k��,9.3,��
2020/10/30,12:00,0.666,0.959,0.605,1.181,0.846,-,0.671,0.634,�k,9.2,��
2020/10/30,12:10,0.667,0.956,0.604,1.179,0.850,-,0.671,0.632,�k�k��,9.4,��
2020/10/30,12:20,0.668,0.960,0.606,1.179,0.849,0.385,0.672,0.633,�k�k��,7.2,��
2020/10/30,12:30,0.666,0.960,0.606,1.180,0.849,0.387,0.671,0.632,�k�k��,8.0,��
2020/10/30,12:40,0.666,0.958,0.606,1.180,0.849,0.386,0.673,0.633,�k�k��,9.5,��
2020/10/30,12:50,0.667,0.958,0.605,1.180,0.849,0.387,0.672,0.632,�k��,7.2,��
2020/10/30,13:00,0.666,0.958,0.608,1.181,0.850,0.387,0.672,0.631,�k��,6.2,��
2020/10/30,13:10,0.666,0.954,0.606,1.182,0.850,0.385,0.670,0.630,�k��,8.5,��
2020/10/30,13:20,0.667,0.956,0.606,1.181,0.850,0.387,0.670,0.632,�k��,7.7,��
2020/10/30,13:30,0.668,0.956,0.607,1.180,0.851,0.387,0.672,0.631,�k��,7.9,��
2020/10/30,13:40,0.667,0.957,0.606,1.179,0.849,0.386,0.671,0.631,�k�k��,6.1,��
2020/10/30,13:50,0.666,0.955,0.606,1.181,0.850,0.387,0.671,0.630,�k�k��,6.9,��
2020/10/30,14:00,0.669,0.959,0.605,1.180,0.848,0.384,0.670,0.631,�k�k��,6.5,��
2020/10/30,14:10,0.669,0.958,0.609,1.180,0.848,0.386,0.670,0.633,�k�k��,7.1,��
2020/10/30,14:20,0.665,0.958,0.606,1.180,0.850,0.386,0.670,0.632,�k�k��,5.7,��
2020/10/30,14:30,0.668,0.960,0.607,1.182,0.850,0.384,0.670,0.631,�k��,5.8,��
2020/10/30,14:40,0.667,0.959,0.607,1.180,0.851,0.385,0.669,0.632,�k��,8.0,��
2020/10/30,14:50,0.668,0.959,0.605,1.182,0.850,0.383,0.671,0.633,�k�k��,7.4,��
2020/10/30,15:00,0.666,0.959,0.604,1.181,0.851,0.384,0.671,0.631,�k��,6.6,�L
2020/10/30,15:10,0.666,0.959,0.606,1.180,0.851,0.385,0.670,0.631,�k��,5.9,��
2020/10/30,15:20,0.667,0.960,0.606,1.182,0.849,0.384,0.671,0.632,�k�k��,5.3,��
2020/10/30,15:30,0.665,0.963,0.607,1.178,0.848,0.385,0.671,0.632,�k�k��,5.8,��
2020/10/30,15:40,0.665,0.962,0.607,1.182,0.847,0.386,0.671,0.632,�k�k��,5.2,��
2020/10/30,15:50,0.665,0.962,0.608,1.181,0.848,0.387,0.671,0.633,�k�k��,5.4,��
2020/10/30,16:00,0.666,0.963,0.607,1.182,0.848,0.386,0.671,0.635,�k�k��,7.7,��
2020/10/30,16:10,0.666,0.964,0.607,1.182,0.848,0.385,0.671,0.634,�k��,6.7,��
2020/10/30,16:20,0.666,0.964,0.606,1.179,0.848,0.386,0.672,0.634,�k��,5.0,��
2020/10/30,16:30,0.665,0.964,0.606,1.181,0.851,0.386,0.671,0.634,�k��,6.6,��
2020/10/30,16:40,0.665,0.966,0.607,1.182,0.850,0.386,0.671,0.634,�k��,4.1,��
2020/10/30,16:50,0.667,0.965,0.609,1.181,0.852,0.385,0.670,0.634,�k��,3.8,��
2020/10/30,17:00,0.669,0.965,0.608,1.184,0.851,0.385,0.671,0.635,�k��,5.6,��
2020/10/30,17:10,0.668,0.965,0.607,1.183,0.851,0.385,0.669,0.634,�k��,6.0,��
2020/10/30,17:20,0.665,0.965,0.610,1.180,0.850,0.384,0.670,0.635,�k��,7.2,��
2020/10/30,17:30,0.667,0.963,0.608,1.182,0.851,0.384,0.674,0.633,�k�k��,4.8,��
2020/10/30,17:40,0.667,0.965,0.608,1.181,0.850,0.385,0.673,0.635,�k�k��,4.0,��
2020/10/30,17:50,0.665,0.964,0.608,1.180,0.850,0.385,0.672,0.633,�k,2.3,��
2020/10/30,18:00,0.665,0.964,0.609,1.181,0.851,0.386,0.672,0.636,�k�k��,2.6,��
2020/10/30,18:10,0.666,0.964,0.608,1.184,0.849,0.384,0.672,0.634,�k��,4.7,��
2020/10/30,18:20,0.666,0.964,0.608,1.181,0.851,0.385,0.672,0.634,�k��,5.4,��
2020/10/30,18:30,0.664,0.966,0.608,1.182,0.851,0.386,0.673,0.634,�k��,4.0,��
2020/10/30,18:40,0.667,0.965,0.608,1.180,0.852,0.385,0.672,0.634,�k��,4.8,��
2020/10/30,18:50,0.667,0.963,0.608,1.181,0.851,0.385,0.672,0.634,�k��,5.0,��
2020/10/30,19:00,0.665,0.963,0.608,1.181,0.852,0.385,0.673,0.632,�k��,4.9,��
2020/10/30,19:10,0.666,0.963,0.610,1.181,0.851,0.385,0.672,0.634,�k��,5.4,��
2020/10/30,19:20,0.665,0.961,0.607,1.179,0.851,0.385,0.673,0.634,�k��,4.5,��
2020/10/30,19:30,0.666,0.963,0.606,1.182,0.850,0.385,0.672,0.633,�k��,4.6,��
2020/10/30,19:40,0.666,0.964,0.605,1.185,0.853,0.384,0.673,0.632,�k�k��,8.4,��
2020/10/30,19:50,0.665,0.966,0.607,1.181,0.849,0.384,0.673,0.634,�k�k��,8.9,��
2020/10/30,20:00,0.665,0.964,0.608,1.181,0.852,0.384,0.672,0.633,�k��,6.7,��
2020/10/30,20:10,0.665,0.963,0.608,1.182,0.851,0.384,0.671,0.634,�k��,7.1,��
2020/10/30,20:20,0.666,0.962,0.608,1.181,0.850,0.384,0.674,0.635,�k�k��,6.5,��
2020/10/30,20:30,0.665,0.963,0.608,1.182,0.852,0.384,0.671,0.634,�k��,5.7,��
2020/10/30,20:40,0.664,0.963,0.608,1.183,0.851,0.384,0.670,0.634,�k�k��,3.7,��
2020/10/30,20:50,0.665,0.962,0.607,1.183,0.851,0.384,0.673,0.635,�k,3.9,��
2020/10/30,21:00,0.666,0.963,0.606,1.182,0.851,0.384,0.673,0.634,�k,4.6,��
2020/10/30,21:10,0.665,0.965,0.608,1.181,0.851,0.385,0.670,0.634,�k�k��,4.8,��
2020/10/30,21:20,0.665,0.964,0.609,1.183,0.850,0.384,0.671,0.634,�k��,5.1,��
2020/10/30,21:30,0.663,0.964,0.607,1.182,0.850,0.385,0.670,0.634,�k��,6.9,��
2020/10/30,21:40,0.664,0.964,0.607,1.183,0.850,0.383,0.671,0.633,�k��,4.8,��
2020/10/30,21:50,0.666,0.962,0.606,1.181,0.850,0.386,0.672,0.634,�k��,5.4,��
2020/10/30,22:00,0.663,0.963,0.607,1.182,0.851,0.385,0.673,0.635,�k��,6.0,��
2020/10/30,22:10,0.666,0.964,0.607,1.181,0.851,0.385,0.673,0.635,�k��,6.2,��
2020/10/30,22:20,0.665,0.963,0.607,1.180,0.851,0.384,0.672,0.634,�k��,6.5,��
2020/10/30,22:30,0.665,0.961,0.607,1.182,0.851,0.385,0.673,0.636,�k��,5.6,��
2020/10/30,22:40,0.664,0.962,0.607,1.182,0.851,0.385,0.673,0.634,�k��,6.1,��
2020/10/30,22:50,0.665,0.961,0.608,1.181,0.852,0.384,0.671,0.635,�k��,5.6,��
2020/10/30,23:00,0.664,0.961,0.608,1.181,0.853,0.385,0.672,0.633,�k��,6.2,��
2020/10/30,23:10,0.664,0.960,0.607,1.183,0.850,0.383,0.671,0.635,�k��,4.8,��
2020/10/30,23:20,0.665,0.962,0.607,1.181,0.851,0.385,0.671,0.633,�k�k��,4.1,��
2020/10/30,23:30,0.664,0.963,0.608,1.184,0.852,0.385,0.671,0.634,�k�k��,4.3,��
2020/10/30,23:40,0.666,0.963,0.607,1.182,0.851,0.384,0.671,0.634,�k�k��,4.5,��
2020/10/30,23:50,0.665,0.963,0.607,1.181,0.851,0.384,0.671,0.633,�k�k��,3.8,��
